KD5UIG Weather Reports


Display with metric or nautical units.
time (UTC)temp
F
wind
direction
speed
MPH
gust
MPH
rain 1hr
in
rain 24hr
in
rain mn
in
humidity
%
barometer
mb
20260509124058 68 274 0.0 4.0 0.00 0.00 0.00 90 1010.7
20260509123555 68 262 0.0 4.0 0.00 0.00 0.00 90 1010.7
20260509123058 68 285 1.0 4.0 0.00 0.00 0.00 90 1010.8
20260509122554 68 283 0.0 4.0 0.00 0.00 0.00 90 1010.6
20260509122054 67 0 2.0 4.0 0.00 0.00 0.00 90 1010.7
20260509121625 68 281 1.0 4.0 0.00 0.00 0.00 90 1010.7
20260509121055 68 279 1.0 4.0 0.00 0.00 0.00 90 1010.7
20260509120557 68 281 1.0 4.0 0.00 0.00 0.00 90 1010.7
20260509120110 68 274 1.0 6.0 0.00 0.00 0.00 90 1010.5
20260509115554 68 277 1.0 6.0 0.00 0.11 0.00 90 1010.5
20260509115054 68 0 1.0 6.0 0.00 0.11 0.00 90 1010.5
20260509114604 68 268 1.0 6.0 0.00 0.11 0.00 90 1010.4
20260509114054 68 287 2.0 4.0 0.00 0.11 0.00 90 1010.5
20260509113553 68 296 1.0 4.0 0.00 0.11 0.00 90 1010.3
20260509113108 67 306 1.0 3.0 0.00 0.11 0.00 90 1010.3
20260509112555 67 306 0.0 2.0 0.00 0.11 0.00 90 1010.2
20260509112055 67 288 0.0 6.0 0.00 0.11 0.00 89 1009.9
20260509111606 67 0 1.0 6.0 0.00 0.11 0.00 89 1010.0
20260509111054 67 288 0.0 3.0 0.00 0.11 0.00 89 1010.0
20260509110558 67 289 1.0 3.0 0.00 0.11 0.00 89 1009.9
20260509110109 67 0 0.0 4.0 0.00 0.11 0.00 89 1009.8
20260509105554 67 0 1.0 4.0 0.00 0.15 0.00 89 1009.6
20260509105055 67 352 0.0 3.0 0.00 0.15 0.00 89 1009.3
20260509104559 67 352 0.0 3.0 0.00 0.15 0.00 89 1009.2
20260509104055 68 0 0.0 3.0 0.00 0.15 0.00 89 1009.2
20260509103556 68 352 0.0 3.0 0.00 0.15 0.00 89 1009.1
20260509103104 68 0 1.0 3.0 0.00 0.15 0.00 89 1009.1
20260509102554 68 360 0.0 1.0 0.00 0.15 0.00 88 1009.2
20260509102054 68 0 0.0 1.0 0.00 0.15 0.00 88 1009.3
20260509101620 68 0 0.0 1.0 0.00 0.15 0.00 88 1009.3
20260509101055 68 0 0.0 1.0 0.00 0.15 0.00 88 1009.3
20260509100555 68 0 0.0 2.0 0.00 0.15 0.00 88 1009.2
20260509100058 68 0 0.0 2.0 0.00 0.15 0.00 88 1009.0
20260509095554 68 80 0.0 2.0 0.00 0.15 0.00 88 1008.9
20260509095054 68 0 0.0 3.0 0.00 0.15 0.00 88 1008.8
20260509094605 68 0 0.0 4.0 0.00 0.15 0.00 88 1008.6
20260509094055 69 0 0.0 8.0 0.00 0.15 0.00 88 1008.5
20260509093557 69 69 3.0 8.0 0.00 0.15 0.00 88 1008.2
20260509093057 69 89 3.0 11.0 0.00 0.15 0.00 87 1008.2
20260509092555 69 87 4.0 11.0 0.00 0.15 0.00 87 1008.1
20260509092058 69 76 1.0 7.0 0.00 0.15 0.00 87 1008.1
20260509091606 69 76 2.0 12.0 0.00 0.15 0.00 87 1008.2
20260509091054 69 58 2.0 12.0 0.00 0.15 0.00 87 1008.1
20260509090557 69 60 4.0 11.0 0.00 0.15 0.00 86 1008.0
20260509090100 70 82 4.0 11.0 0.00 0.15 0.00 86 1008.0
20260509085557 70 74 5.0 11.0 0.00 0.15 0.00 86 1007.9
20260509085054 70 292 5.0 10.0 0.00 0.15 0.00 85 1007.9
20260509084601 69 123 2.0 10.0 0.00 0.15 0.00 85 1007.8
20260509084054 69 5 3.0 10.0 0.00 0.15 0.00 85 1007.7
20260509083553 69 331 2.0 7.0 0.00 0.15 0.00 85 1007.7
20260509083101 69 330 1.0 4.0 0.00 0.15 0.00 86 1007.7
20260509082553 70 0 1.0 9.0 0.00 0.15 0.00 86 1007.5
20260509082055 70 55 0.0 9.0 0.00 0.15 0.00 86 1007.6
20260509081555 69 340 3.0 9.0 0.00 0.15 0.00 86 1008.0
20260509081055 69 360 0.0 8.0 0.00 0.15 0.00 87 1008.1
20260509080558 69 0 1.0 8.0 0.00 0.15 0.00 87 1006.7
20260509080055 69 191 2.0 12.0 0.00 0.15 0.00 87 1006.7
20260509075554 69 360 2.0 15.0 0.00 0.15 0.00 87 1006.7
20260509075054 70 360 5.0 15.0 0.00 0.15 0.00 88 1006.7
20260509074555 70 178 6.0 15.0 0.00 0.15 0.00 88 1006.9
20260509074056 69 360 7.0 15.0 0.00 0.15 0.00 88 1007.3
20260509073554 69 360 5.0 13.0 0.00 0.15 0.00 89 1007.6
20260509073055 69 360 5.0 13.0 0.00 0.15 0.00 89 1008.1
20260509072554 69 360 3.0 11.0 0.00 0.15 0.00 89 1008.2
20260509072053 69 360 4.0 12.0 0.00 0.15 0.00 89 1008.4
20260509071556 69 360 4.0 12.0 0.00 0.15 0.00 89 1008.8
20260509071054 69 360 3.0 12.0 0.00 0.15 0.00 88 1008.8
20260509070554 69 360 3.0 11.0 0.00 0.15 0.00 89 1008.9
20260509070054 69 360 3.0 11.0 0.00 0.15 0.00 88 1008.9
20260509065556 69 360 3.0 11.0 0.00 0.15 0.00 88 1009.1
20260509065054 68 360 3.0 10.0 0.00 0.15 0.00 88 1009.4
20260509064555 68 360 3.0 10.0 0.00 0.15 0.00 88 1009.4
20260509064054 68 360 2.0 8.0 0.00 0.15 0.00 88 1009.4
20260509063554 68 360 2.0 8.0 0.00 0.15 0.00 87 1009.6
20260509063052 68 360 1.0 5.0 0.00 0.15 0.00 87 1009.8
20260509062554 68 360 2.0 5.0 0.00 0.15 0.00 87 1009.9
20260509062054 68 360 1.0 5.0 0.00 0.15 0.00 86 1010.3
20260509061552 68 208 0.0 3.0 0.00 0.15 0.00 86 1010.8
20260509061054 68 360 1.0 3.0 0.00 0.15 0.00 86 1010.8
20260509060553 68 222 0.0 3.0 0.00 0.15 0.00 85 1010.5
20260509060106 68 0 1.0 3.0 0.00 0.15 0.00 85 1010.7
20260509055554 68 360 0.0 3.0 0.00 0.15 0.00 85 1010.4
20260509055055 68 0 0.0 2.0 0.00 0.15 0.00 85 1010.6
20260509054553 68 0 0.0 3.0 0.00 0.15 0.00 84 1010.6
20260509054055 68 0 0.0 3.0 0.00 0.15 0.00 84 1010.4
20260509053554 68 174 0.0 4.0 0.00 0.15 0.00 84 1010.4
20260509053119 69 0 0.0 5.0 0.00 0.15 0.00 84 1010.4
20260509052558 69 0 1.0 5.0 0.00 0.15 0.00 84 1010.2
20260509052055 69 178 1.0 4.0 0.00 0.15 0.00 84 1010.3
20260509051555 69 0 1.0 4.0 0.00 0.15 0.00 83 1010.4
20260509051054 69 0 1.0 4.0 0.00 0.15 0.00 83 1010.3
20260509050554 69 236 1.0 4.0 0.00 0.15 0.00 83 1010.9
20260509050057 70 0 0.0 3.0 0.00 0.15 0.00 83 1011.1
20260509045556 70 0 0.0 4.0 0.00 0.15 0.15 83 1011.4
20260509045054 70 0 1.0 5.0 0.00 0.15 0.15 83 1011.6
20260509044649 70 22 2.0 10.0 0.00 0.15 0.15 83 1012.2
20260509044054 70 0 2.0 10.0 0.00 0.15 0.15 83 1012.0
20260509043554 70 349 4.0 10.0 0.00 0.15 0.15 83 1012.2
20260509043132 70 5 4.0 9.0 0.00 0.15 0.15 83 1012.3
20260509042555 70 167 0.0 1.0 0.00 0.15 0.15 83 1011.3
20260509042056 70 0 0.0 3.0 0.00 0.15 0.15 83 1010.5
20260509041555 70 0 0.0 4.0 0.00 0.15 0.15 83 1010.3
20260509041055 70 0 0.0 4.0 0.00 0.15 0.15 83 1010.5
20260509040556 70 170 0.0 3.0 0.00 0.15 0.15 83 1010.4
20260509040054 70 0 0.0 8.0 0.00 0.15 0.15 83 1010.2
20260509035558 70 181 0.0 8.0 0.00 0.15 0.15 82 1009.9
20260509035054 70 184 0.0 3.0 0.00 0.15 0.15 82 1009.7
20260509034553 70 209 0.0 3.0 0.00 0.15 0.15 82 1009.5
20260509034055 70 0 0.0 3.0 0.00 0.15 0.15 82 1009.4
20260509033558 71 0 1.0 3.0 0.00 0.15 0.15 81 1009.4
20260509033054 71 196 0.0 5.0 0.00 0.15 0.15 81 1009.5
20260509032554 71 0 0.0 5.0 0.00 0.15 0.15 81 1009.4
20260509032053 71 0 0.0 5.0 0.00 0.15 0.15 81 1009.5
20260509031602 71 163 0.0 3.0 0.00 0.15 0.15 81 1009.6
20260509031054 71 0 0.0 4.0 0.00 0.15 0.15 81 1009.7
20260509030555 71 88 0.0 4.0 0.00 0.15 0.15 81 1010.0
20260509030112 71 74 0.0 4.0 0.00 0.15 0.15 81 1010.4
20260509025554 71 71 1.0 4.0 0.00 0.15 0.15 81 1010.6
20260509025056 71 70 1.0 5.0 0.00 0.15 0.15 81 1010.7
20260509024554 71 87 1.0 5.0 0.00 0.15 0.15 81 1010.7
20260509024054 71 77 1.0 4.0 0.00 0.15 0.15 81 1010.4
20260509023556 71 0 1.0 4.0 0.00 0.15 0.15 81 1010.1
20260509023058 71 92 1.0 4.0 0.00 0.15 0.15 80 1009.8
20260509022554 71 94 0.0 4.0 0.00 0.15 0.15 80 1009.6
20260509022058 71 185 0.0 2.0 0.00 0.15 0.15 80 1009.1
20260509021554 71 186 0.0 5.0 0.00 0.15 0.15 79 1008.9
20260509021056 71 0 0.0 5.0 0.00 0.15 0.15 79 1008.6
20260509020554 71 0 0.0 5.0 0.00 0.15 0.15 78 1008.3
20260509020105 71 0 0.0 5.0 0.00 0.15 0.15 78 1008.3
20260509015555 72 210 0.0 3.0 0.00 0.15 0.15 78 1008.2
20260509015055 72 0 0.0 4.0 0.00 0.15 0.15 77 1008.1
20260509014555 72 0 0.0 5.0 0.00 0.15 0.15 77 1008.2
20260509014054 72 200 0.0 5.0 0.00 0.15 0.15 77 1008.2
20260509013554 73 0 1.0 7.0 0.00 0.15 0.15 76 1008.0
20260509013059 73 0 0.0 7.0 0.00 0.15 0.15 76 1008.0
20260509012554 73 174 1.0 7.0 0.00 0.15 0.15 75 1008.1
20260509012054 74 181 1.0 7.0 0.00 0.15 0.15 74 1008.2
20260509011558 74 180 2.0 7.0 0.00 0.15 0.15 74 1008.3
20260509011055 74 206 1.0 7.0 0.00 0.15 0.15 73 1008.4
20260509010554 74 0 0.0 7.0 0.00 0.15 0.15 73 1008.6
20260509010054 75 0 1.0 6.0 0.00 0.15 0.15 73 1008.7
20260509005554 75 192 0.0 6.0 0.00 0.15 0.15 72 1008.8
20260509005054 75 187 0.0 5.0 0.00 0.15 0.15 72 1008.8
20260509004600 75 0 1.0 5.0 0.00 0.15 0.15 71 1008.7
20260509004057 75 190 1.0 5.0 0.00 0.15 0.15 71 1008.7
20260509003555 76 0 1.0 10.0 0.00 0.15 0.15 71 1008.5
20260509003059 76 199 2.0 10.0 0.00 0.15 0.15 70 1008.3
20260509002554 76 194 2.0 9.0 0.00 0.15 0.15 70 1008.3
20260509002054 77 194 1.0 10.0 0.00 0.15 0.15 70 1008.3
20260509001600 77 216 2.0 10.0 0.00 0.15 0.15 69 1008.2
20260509001054 77 175 2.0 10.0 0.00 0.15 0.15 69 1008.2
20260509000554 77 186 3.0 9.0 0.00 0.15 0.15 69 1008.1
20260509000107 77 171 2.0 9.0 0.00 0.15 0.15 68 1008.1
20260508235554 77 136 2.0 9.0 0.00 0.15 0.15 68 1008.0
20260508235054 78 211 1.0 7.0 0.00 0.15 0.15 67 1008.1
20260508234557 78 182 1.0 7.0 0.00 0.15 0.15 66 1008.1
20260508234100 78 197 2.0 8.0 0.00 0.15 0.15 66 1008.2
20260508233555 78 175 2.0 8.0 0.00 0.15 0.15 65 1008.2
20260508233054 79 168 2.0 10.0 0.00 0.15 0.15 65 1008.3
20260508232556 79 173 1.0 11.0 0.00 0.15 0.15 64 1008.3
20260508232054 79 195 3.0 11.0 0.00 0.15 0.15 64 1008.3
20260508231559 79 193 2.0 9.0 0.00 0.15 0.15 64 1008.3
20260508231055 79 209 1.0 8.0 0.00 0.15 0.15 64 1008.3
20260508230559 79 171 1.0 9.0 0.00 0.15 0.15 64 1008.4
20260508230058 79 200 3.0 9.0 0.00 0.15 0.15 63 1008.3
20260508225555 79 230 2.0 9.0 0.00 0.15 0.15 63 1008.3
20260508225058 80 80 2.0 10.0 0.00 0.15 0.15 63 1008.3
20260508224635 80 205 3.0 10.0 0.00 0.15 0.15 63 1008.4
20260508224055 80 223 2.0 11.0 0.00 0.15 0.15 63 1008.3
20260508223555 80 181 2.0 11.0 0.00 0.15 0.15 64 1008.3
20260508223055 80 200 2.0 10.0 0.00 0.15 0.15 64 1008.3
20260508222558 80 33 1.0 10.0 0.00 0.15 0.15 64 1008.5
20260508222055 80 172 2.0 10.0 0.00 0.15 0.15 65 1008.5
20260508221555 80 182 4.0 10.0 0.00 0.15 0.15 63 1008.5
20260508221054 80 152 3.0 11.0 0.00 0.15 0.15 62 1008.6
20260508220554 81 199 4.0 11.0 0.00 0.15 0.15 62 1008.7
20260508220058 81 216 2.0 8.0 0.00 0.15 0.15 63 1008.6
20260508215554 81 157 1.0 8.0 0.00 0.15 0.15 62 1008.6
20260508215054 81 209 1.0 8.0 0.00 0.15 0.15 62 1008.6
20260508214559 81 182 2.0 8.0 0.00 0.15 0.15 62 1008.7
20260508214055 81 111 2.0 8.0 0.00 0.15 0.15 62 1008.7
20260508213554 82 205 2.0 11.0 0.00 0.15 0.15 61 1008.7
20260508213100 82 178 2.0 11.0 0.00 0.15 0.15 62 1008.8
20260508212554 82 205 3.0 10.0 0.00 0.15 0.15 60 1008.8
20260508212053 82 157 1.0 5.0 0.00 0.15 0.15 61 1008.9
20260508211602 81 188 1.0 6.0 0.00 0.15 0.15 62 1008.8
20260508211054 81 0 1.0 7.0 0.00 0.15 0.15 62 1008.8
20260508210554 81 152 1.0 7.0 0.00 0.15 0.15 61 1008.7
20260508210056 81 175 2.0 9.0 0.00 0.15 0.15 62 1008.7
20260508205558 81 335 1.0 11.0 0.00 0.15 0.15 61 1008.8
20260508205056 81 194 2.0 11.0 0.00 0.15 0.15 61 1009.0
20260508204557 81 151 2.0 12.0 0.00 0.15 0.15 60 1009.1
20260508204055 80 220 2.0 15.0 0.00 0.15 0.15 63 1009.3
20260508203554 79 184 6.0 15.0 0.00 0.15 0.15 61 1009.5
20260508203107 79 204 3.0 11.0 0.00 0.15 0.15 62 1009.6
20260508202557 79 76 4.0 12.0 0.00 0.15 0.15 63 1009.8
20260508202057 79 177 2.0 12.0 0.00 0.15 0.15 62 1009.9
20260508201604 80 187 4.0 11.0 0.00 0.15 0.15 61 1010.1
20260508201057 80 207 3.0 11.0 0.00 0.15 0.15 62 1010.1
20260508200555 81 204 3.0 10.0 0.00 0.15 0.15 59 1010.3
20260508200055 83 134 3.0 10.0 0.00 0.15 0.15 60 1010.3
20260508195600 83 186 2.0 11.0 0.00 0.15 0.15 58 1010.4
20260508195100 83 203 3.0 11.0 0.00 0.15 0.15 57 1010.3
20260508194559 83 213 2.0 13.0 0.00 0.15 0.15 59 1010.4
20260508194056 82 169 4.0 13.0 0.00 0.15 0.15 60 1010.4
20260508193559 81 227 2.0 6.0 0.00 0.15 0.15 64 1010.5
20260508193057 79 207 2.0 8.0 0.00 0.15 0.15 64 1010.6
20260508192554 79 168 3.0 8.0 0.00 0.15 0.15 62 1010.7
20260508192055 79 167 2.0 8.0 0.00 0.15 0.15 62 1010.7
20260508191557 79 223 3.0 10.0 0.00 0.15 0.15 62 1010.6
20260508191058 80 180 1.0 10.0 0.00 0.15 0.15 60 1010.6
20260508190554 82 217 2.0 8.0 0.00 0.15 0.15 59 1010.6
20260508190056 82 0 1.0 7.0 0.00 0.15 0.15 61 1010.6
20260508185554 82 134 3.0 7.0 0.00 0.15 0.15 59 1010.7
20260508185054 82 171 1.0 6.0 0.00 0.15 0.15 61 1010.8
20260508184556 81 191 1.0 9.0 0.00 0.15 0.15 62 1011.0
20260508184054 80 32 2.0 9.0 0.00 0.15 0.15 61 1011.1
20260508183554 80 205 2.0 7.0 0.00 0.15 0.15 63 1011.1
20260508183056 80 67 1.0 6.0 0.00 0.15 0.15 62 1011.1
20260508182553 81 167 1.0 7.0 0.00 0.15 0.15 60 1011.2
20260508182055 80 0 1.0 7.0 0.00 0.15 0.15 62 1011.2
20260508181558 81 182 1.0 7.0 0.00 0.15 0.15 61 1011.4
20260508181055 80 199 1.0 7.0 0.00 0.15 0.15 62 1011.5
20260508180555 79 190 1.0 8.0 0.00 0.15 0.15 64 1011.6
20260508180057 79 0 0.0 8.0 0.00 0.15 0.15 65 1011.7
20260508175554 79 82 1.0 4.0 0.00 0.15 0.15 66 1011.9
20260508175054 79 74 1.0 6.0 0.00 0.15 0.15 64 1011.9
20260508174559 80 275 1.0 6.0 0.00 0.15 0.15 65 1012.1
20260508174056 79 101 1.0 6.0 0.00 0.15 0.15 64 1012.2
20260508173554 78 161 1.0 7.0 0.00 0.15 0.15 64 1012.2
20260508173055 78 223 1.0 8.0 0.00 0.15 0.15 63 1012.3
20260508172554 78 207 2.0 8.0 0.00 0.15 0.15 65 1012.3
20260508172054 77 192 1.0 5.0 0.00 0.15 0.15 64 1012.4
20260508171553 77 200 1.0 6.0 0.00 0.15 0.15 62 1012.4
20260508171053 76 130 1.0 6.0 0.00 0.15 0.15 63 1012.5
20260508170553 76 188 1.0 4.0 0.00 0.15 0.15 65 1012.7
20260508170054 76 215 1.0 4.0 0.00 0.15 0.15 64 1012.7
20260508165555 75 238 1.0 6.0 0.00 0.15 0.15 67 1012.8
20260508165054 74 190 1.0 6.0 0.00 0.15 0.15 68 1013.0
20260508164555 73 164 1.0 6.0 0.00 0.15 0.15 68 1013.0
20260508164054 72 0 1.0 7.0 0.00 0.15 0.15 66 1013.0
20260508163554 73 157 2.0 7.0 0.00 0.15 0.15 64 1013.2
20260508163053 75 194 2.0 11.0 0.00 0.15 0.15 65 1013.4
20260508162554 74 213 2.0 12.0 0.00 0.15 0.15 67 1013.4
20260508162054 73 214 4.0 12.0 0.00 0.15 0.15 65 1013.5
20260508161557 73 217 1.0 8.0 0.00 0.15 0.15 66 1013.4
20260508161056 73 137 2.0 8.0 0.00 0.15 0.15 68 1013.4
20260508160555 72 200 1.0 8.0 0.00 0.15 0.15 67 1013.4
20260508160054 73 202 1.0 7.0 0.00 0.15 0.15 68 1013.5
20260508155555 71 175 2.0 10.0 0.00 0.15 0.15 68 1013.6
20260508155056 71 126 2.0 10.0 0.00 0.15 0.15 67 1013.7
20260508154609 72 183 2.0 8.0 0.00 0.15 0.15 68 1013.8
20260508154054 71 193 1.0 7.0 0.00 0.15 0.15 68 1013.8
20260508153554 71 119 1.0 7.0 0.00 0.15 0.15 70 1014.0
20260508153054 70 184 2.0 7.0 0.00 0.15 0.15 70 1013.9
20260508152554 70 163 0.0 5.0 0.00 0.15 0.15 71 1014.0
20260508152054 70 0 1.0 6.0 0.00 0.15 0.15 71 1014.1
20260508151555 70 203 2.0 6.0 0.00 0.15 0.15 74 1014.2
20260508151054 69 198 2.0 7.0 0.00 0.15 0.15 75 1014.2
20260508150555 69 0 1.0 7.0 0.00 0.15 0.15 74 1014.0
20260508150108 69 210 1.0 8.0 0.00 0.15 0.15 75 1014.3
20260508145554 69 191 1.0 8.0 0.00 0.15 0.15 73 1014.3
20260508145053 70 197 3.0 7.0 0.00 0.15 0.15 73 1014.6
20260508144553 70 169 1.0 4.0 0.00 0.15 0.15 77 1014.3
20260508144055 69 92 1.0 4.0 0.00 0.15 0.15 77 1014.4
20260508143555 68 192 1.0 6.0 0.00 0.15 0.15 81 1014.4
20260508143135 66 215 1.0 6.0 0.00 0.15 0.15 83 1014.2
20260508142554 65 202 1.0 5.0 0.00 0.15 0.15 85 1014.3
20260508142054 65 196 0.0 5.0 0.00 0.15 0.15 86 1014.2
20260508141607 65 0 0.0 5.0 0.00 0.15 0.15 88 1014.5
20260508141055 64 0 0.0 5.0 0.00 0.15 0.15 90 1014.4
20260508140554 63 0 1.0 5.0 0.00 0.15 0.15 89 1014.7
20260508140106 63 194 0.0 4.0 0.00 0.15 0.15 89 1014.7
20260508135554 63 0 0.0 4.0 0.00 0.15 0.15 89 1014.5
20260508135055 63 195 0.0 3.0 0.00 0.15 0.15 90 1014.8
20260508134557 63 0 0.0 2.0 0.00 0.15 0.15 90 1014.6
20260508134055 62 0 0.0 2.0 0.00 0.15 0.15 90 1014.7
20260508133557 62 0 0.0 2.0 0.00 0.15 0.15 90 1014.5
20260508133108 62 0 0.0 2.0 0.00 0.15 0.15 90 1014.5
20260508132554 62 0 0.0 2.0 0.00 0.15 0.15 90 1014.6
20260508132055 61 0 0.0 3.0 0.00 0.15 0.15 90 1014.6
20260508131601 61 0 0.0 7.0 0.00 0.15 0.15 89 1014.5
20260508131055 61 197 1.0 7.0 0.00 0.15 0.15 90 1014.5
20260508130554 61 0 1.0 4.0 0.00 0.15 0.15 90 1014.5
20260508125554 60 0 0.0 2.0 0.00 0.15 0.15 89 1014.4
20260508125055 60 0 0.0 2.0 0.00 0.15 0.15 89 1014.4
20260508124558 60 0 0.0 1.0 0.00 0.15 0.15 89 1014.3